Pagosa Springs, CO

2:08 AM MST on January 23, 2018 (GMT -0700)
Pagosa Springs

Weather History for KPSO - January, 2013

Change the Weather History Date:

Tuesday, January 22, 2013

  Actual Average (KE33) Record (KE33)
Temperature  
Mean Temperature 26 °F -  
Max Temperature 45 °F 36 °F 53 °F (2009)
Min Temperature 8 °F 18 °F 3 °F (2007)
Degree Days  
Heating Degree Days 38    
Moisture  
Dew Point 12 °F    
Average Humidity 65    
Maximum Humidity 93    
Minimum Humidity 26    
Precipitation  
Precipitation 0.00 in - - ()
Sea Level Pressure  
Sea Level Pressure 30.34 in    
Wind  
Wind Speed 1 mph (SSW)    
Max Wind Speed 5 mph    
Max Gust Speed -    
Visibility 10 miles    
Events      
Averages and records for this station are not official NWS values.
T = Trace of Precipitation, MM = Missing Value Source: NWS Daily Summary

Daily Weather History Graph

Daily Weather History Graph

Search for Another Location

Airport or City:

Trip Planner

Search our weather history database for the weather conditions in past years. The results will help you decide how hot, cold, wet, or windy it might be!

Date:

Astronomy

Jan. 22, 2013 Rise Set
Actual Time 7:18 AM MST 5:22 PM MST
Civil Twilight 6:50 AM MST 5:50 PM MST
Nautical Twilight 6:18 AM MST 6:21 PM MST
Astronomical Twilight 5:47 AM MST 6:52 PM MST
Moon 1:48 PM MST (1/22) 3:41 AM MST (1/22)
Length of Visible Light 11h 00m
Length of Day
10h 04m
Waxing Gibbous, 83% of the Moon is Illuminated
Jan 22
Waxing Gibbous
Jan 26
Full
Feb 3
Last Quarter
Feb 10
New
Feb 17
First Quarter

Hourly Weather History & Observations

Time (MST) Temp. Windchill Dew Point Humidity Pressure Visibility Wind Dir Wind Speed Gust Speed Precip Events Conditions
12:55 AM 16.3 °F - 13.8 °F 90% 30.30 in 10.0 mi Calm Calm - N/A   Clear
1:15 AM 13.1 °F 7.1 °F 9.7 °F 86% 30.30 in 10.0 mi ENE 3.5 mph - N/A   Clear
1:35 AM 12.7 °F - 10.2 °F 90% 30.31 in 10.0 mi Calm Calm - N/A   Clear
1:55 AM 12.7 °F - 7.7 °F 80% 30.33 in 10.0 mi Calm Calm - N/A   Clear
2:15 AM 9.7 °F - 7.2 °F 90% 30.32 in 10.0 mi Calm Calm - N/A   Clear
2:35 AM 11.1 °F - 9.5 °F 93% 30.33 in 10.0 mi Calm Calm - N/A   Clear
2:55 AM 12.9 °F - 10.9 °F 92% 30.33 in 10.0 mi Calm Calm - N/A   Clear
3:15 AM 14.2 °F - 11.5 °F 89% 30.33 in 10.0 mi Calm Calm - N/A   Clear
3:35 AM 12.2 °F - 10.4 °F 92% 30.32 in 10.0 mi Calm Calm - N/A   Clear
3:55 AM 11.5 °F - 7.7 °F 85% 30.31 in 10.0 mi Calm Calm - N/A   Clear
4:15 AM 12.9 °F - 11.3 °F 93% 30.31 in 10.0 mi Calm Calm - N/A   Clear
4:35 AM 13.3 °F - 11.5 °F 93% 30.31 in 10.0 mi Calm Calm - N/A   Clear
4:55 AM 8.2 °F - 5.5 °F 89% 30.31 in 10.0 mi Calm Calm - N/A   Clear
5:15 AM 10.0 °F - 7.9 °F 91% 30.32 in 10.0 mi Calm Calm - N/A   Clear
5:35 AM 13.5 °F - 11.7 °F 93% 30.32 in 10.0 mi Calm Calm - N/A   Clear
5:55 AM 13.3 °F - 11.7 °F 93% 30.34 in 10.0 mi Calm Calm - N/A   Clear
6:15 AM 11.7 °F - 10.0 °F 93% 30.35 in 10.0 mi Calm Calm - N/A   Clear
6:35 AM 9.9 °F 3.4 °F 7.9 °F 92% 30.35 in 10.0 mi NE 3.5 mph - N/A   Clear
6:55 AM 10.8 °F - 8.4 °F 90% 30.35 in 10.0 mi Calm Calm - N/A   Clear
7:15 AM 12.7 °F - 10.8 °F 92% 30.35 in 10.0 mi Calm Calm - N/A   Clear
7:35 AM 12.9 °F - 10.4 °F 90% 30.35 in 10.0 mi Calm Calm - N/A   Clear
7:55 AM 10.0 °F 3.6 °F 7.5 °F 90% 30.35 in 10.0 mi WNW 3.5 mph - N/A   Clear
8:15 AM 14.9 °F - 11.1 °F 85% 30.35 in 10.0 mi Calm Calm - N/A   Clear
8:35 AM 15.8 °F - 10.9 °F 81% 30.35 in 10.0 mi Calm Calm - N/A   Clear
8:55 AM 19.8 °F - 11.3 °F 70% 30.36 in 10.0 mi Calm Calm - N/A   Clear
9:15 AM 23.2 °F - 11.1 °F 60% 30.36 in 10.0 mi Calm Calm - N/A   Clear
9:35 AM 27.1 °F - 10.9 °F 51% 30.36 in 10.0 mi Calm Calm - N/A   Clear
9:55 AM 26.4 °F - 11.3 °F 53% 30.37 in 10.0 mi Calm Calm - N/A   Clear
10:15 AM 30.6 °F - 10.2 °F 43% 30.36 in 10.0 mi Calm Calm - N/A   Clear
10:35 AM 31.8 °F - 11.5 °F 43% 30.36 in 10.0 mi Calm Calm - N/A   Clear
10:55 AM 33.1 °F 28.7 °F 11.1 °F 40% 30.36 in 10.0 mi South 4.6 mph - N/A   Clear
11:15 AM 35.2 °F - 12.9 °F 40% 30.36 in 10.0 mi Calm Calm - N/A   Clear
11:35 AM 35.4 °F - 13.1 °F 40% 30.35 in 10.0 mi Calm Calm - N/A   Clear
11:55 AM 39.4 °F - 10.4 °F 30% 30.34 in 10.0 mi Calm Calm - N/A   Clear
12:15 PM 40.1 °F 36.9 °F 11.8 °F 32% 30.34 in 10.0 mi SSW 4.6 mph - N/A   Clear
12:35 PM 41.2 °F 39.2 °F 9.7 °F 28% 30.33 in 10.0 mi SSW 3.5 mph - N/A   Clear
12:55 PM 41.9 °F 39.0 °F 11.1 °F 28% 30.32 in 10.0 mi South 4.6 mph - N/A   Clear
1:15 PM 42.8 °F - 10.2 °F 26% 30.31 in 10.0 mi Calm Calm - N/A   Clear
1:35 PM 43.7 °F 42.1 °F 10.9 °F 26% 30.31 in 10.0 mi SSW 3.5 mph - N/A   Clear
1:55 PM 43.9 °F 41.3 °F 12.6 °F 28% 30.31 in 10.0 mi SSW 4.6 mph - N/A   Clear
2:15 PM 44.6 °F 42.2 °F 11.3 °F 26% 30.31 in 10.0 mi SW 4.6 mph - N/A   Clear
2:35 PM 44.4 °F 42.0 °F 11.5 °F 26% 30.31 in 10.0 mi SW 4.6 mph - N/A   Clear
2:55 PM 44.6 °F - 11.3 °F 26% 30.31 in 10.0 mi Calm Calm - N/A   Clear
3:15 PM 45.0 °F 43.5 °F 12.2 °F 27% 30.31 in 10.0 mi SW 3.5 mph - N/A   Clear
3:35 PM 44.8 °F - 13.3 °F 28% 30.32 in 10.0 mi Calm Calm - N/A   Clear
3:55 PM 45.0 °F 43.5 °F 13.5 °F 28% 30.32 in 10.0 mi SW 3.5 mph - N/A   Clear
4:15 PM 44.2 °F - 14.4 °F 30% 30.32 in 10.0 mi Calm Calm - N/A   Clear
4:35 PM 42.8 °F - 14.2 °F 31% 30.32 in 10.0 mi Calm Calm - N/A   Clear
4:55 PM 38.5 °F - 16.9 °F 42% 30.32 in 10.0 mi Calm Calm - N/A   Clear
5:15 PM 33.1 °F - 18.3 °F 55% 30.32 in 10.0 mi Calm Calm - N/A   Clear
5:35 PM 32.5 °F - 19.0 °F 58% 30.33 in 10.0 mi Calm Calm - N/A   Clear
5:55 PM 30.6 °F - 17.4 °F 58% 30.33 in 10.0 mi Calm Calm - N/A   Clear
6:15 PM 28.9 °F - 18.5 °F 65% 30.34 in 10.0 mi Calm Calm - N/A   Clear
6:35 PM 28.2 °F - 17.1 °F 63% 30.34 in 10.0 mi Calm Calm - N/A   Clear
6:55 PM 26.4 °F - 17.6 °F 69% 30.35 in 10.0 mi Calm Calm - N/A   Clear
7:15 PM 24.3 °F - 15.6 °F 70% 30.35 in 10.0 mi Calm Calm - N/A   Clear
7:35 PM 26.2 °F - 16.5 °F 67% 30.35 in 10.0 mi Calm Calm - N/A   Clear
7:55 PM 25.3 °F - 16.3 °F 69% 30.35 in 10.0 mi Calm Calm - N/A   Clear
8:15 PM 22.5 °F - 15.3 °F 74% 30.36 in 10.0 mi Calm Calm - N/A   Clear
8:35 PM 21.0 °F - 12.9 °F 71% 30.36 in 10.0 mi Calm Calm - N/A   Clear
8:55 PM 21.7 °F - 14.7 °F 74% 30.36 in 10.0 mi Calm Calm - N/A   Clear
9:15 PM 21.4 °F - 12.9 °F 70% 30.36 in 10.0 mi Calm Calm - N/A   Clear
9:55 PM 22.3 °F - 14.7 °F 73% 30.36 in 10.0 mi Calm Calm - N/A   Clear
10:15 PM 19.4 °F - 14.0 °F 80% 30.36 in 10.0 mi Calm Calm - N/A   Clear
10:35 PM 21.4 °F - 13.8 °F 73% 30.37 in 10.0 mi Calm Calm - N/A   Clear
10:55 PM 16.3 °F - 12.6 °F 85% 30.37 in 10.0 mi Calm Calm - N/A   Clear
11:15 PM 14.2 °F - 10.0 °F 84% 30.37 in 10.0 mi Calm Calm - N/A   Clear
11:35 PM 15.3 °F - 11.5 °F 85% 30.37 in 10.0 mi Calm Calm - N/A   Clear
11:55 PM 15.3 °F - 12.2 °F 88% 30.37 in 10.0 mi Calm Calm - N/A   Clear